DW4362 Weather Reports


Display with metric or nautical units.
time (UTC)temp
F
wind
direction
speed
MPH
gust
MPH
rain 1hr
in
rain 24hr
in
rain mn
in
humidity
%
barometer
mb
20260904173202 90 123 3.0 5.0 0.00 0.55 0.00 73 1013.4
20260904170202 90 28 0.0 3.0 0.00 0.55 0.00 74 1013.7
20260904163202 88 329 0.0 0.0 0.00 0.55 0.00 77 1014.4
20260904153202 85 46 0.0 0.0 0.00 0.55 0.00 87 1014.3
20260904150202 85 1 0.0 0.0 0.00 0.55 0.00 85 1014.3
20260904143202 85 86 0.0 2.0 0.00 0.55 0.00 85 1014.3
20260904140202 81 306 0.0 2.0 0.00 0.55 0.00 95 1014.1
20260904133202 78 301 0.0 0.0 0.00 0.55 0.00 95 1013.9
20260904130201 77 289 0.0 0.0 0.00 0.55 0.00 95 1013.8
20260904123202 76 289 0.0 0.0 0.00 0.55 0.00 95 1013.6
20260904120202 75 288 0.0 0.0 0.00 0.55 0.00 95 1013.5
20260904113201 74 288 0.0 0.0 0.00 0.55 0.00 95 1013.2
20260904110201 74 288 0.0 0.0 0.00 0.55 0.00 95 1013.0
20260904103201 74 288 0.0 0.0 0.00 0.55 0.00 94 1012.9
20260904100201 74 288 0.0 0.0 0.00 0.55 0.00 94 1012.6
20260904093201 74 288 0.0 0.0 0.00 0.55 0.00 94 1012.5
20260904090201 74 289 0.0 0.0 0.00 0.55 0.00 94 1012.6
20260904083201 74 289 0.0 0.0 0.00 0.56 0.00 94 1012.5
20260904080201 74 289 0.0 0.0 0.00 0.56 0.00 94 1012.5
20260904073200 74 271 0.0 0.0 0.00 0.56 0.00 94 1012.5
20260904070200 74 271 0.0 0.0 0.00 0.56 0.00 94 1012.6
20260904060200 74 96 0.0 0.0 0.00 0.56 0.00 95 1013.1
20260904053200 75 96 0.0 0.0 0.01 0.56 0.00 95 1013.4
20260904043200 75 98 0.0 0.0 0.54 0.55 0.55 95 1014.0
20260904040159 77 124 2.0 5.0 0.24 0.25 0.25 93 1014.7
20260904033159 80 172 0.0 0.0 0.00 0.01 0.01 92 1013.4
20260904030159 80 172 0.0 0.0 0.00 0.01 0.01 92 1013.3
20260904023159 80 172 0.0 0.0 0.00 0.01 0.01 93 1013.3
20260904020159 80 172 0.0 0.0 0.00 0.01 0.01 92 1013.3
20260904013159 80 172 0.0 0.0 0.00 0.01 0.01 91 1013.0
20260904003159 81 172 0.0 0.0 0.00 0.01 0.01 89 1012.7
20260904000159 83 172 0.0 0.0 0.00 0.01 0.01 88 1012.3
20260903233158 84 172 0.0 0.0 0.00 0.01 0.01 85 1012.2
20260903230159 85 197 0.0 0.0 0.00 0.01 0.01 85 1012.1
20260903223158 85 151 0.0 0.0 0.00 0.01 0.01 82 1012.2
20260903220158 86 160 0.0 0.0 0.00 0.01 0.01 77 1012.1
20260903213158 86 160 0.0 0.0 0.00 0.01 0.01 76 1012.2
20260903203158 91 99 0.0 2.0 0.00 0.01 0.01 64 1012.8
20260903200228 92 171 0.0 2.0 0.00 0.04 0.01 61 1013.1
20260903193158 93 13 2.0 5.0 0.00 0.25 0.01 60 1013.4
20260903183158 89 82 2.0 2.0 0.00 0.25 0.01 73 1014.0
20260903180228 89 234 0.0 0.0 0.00 0.25 0.01 70 1014.3